Theta_e
287 290 291 290 291 291 290 289 288 289 288 287 288 288 288 287 288 289 288 288 287 288 290 292 295 296 301 306 326 327 325 325 316 319 321 329 334 336 336 337 337 337 330
287 287 290 289 289 289 289 288 288 288 288 286 286 286 286 287 287 286 286 287 286 285 285 286 287 291 292 295 298 305 322 324 321 317 323 325 326 335 337 338 335 334 336
286 286 287 287 287 287 287 287 286 286 286 285 284 284 285 286 285 285 286 285 285 284 284 284 284 286 288 290 294 297 303 311 323 321 320 324 326 329 332 335 335 335 335
284 284 284 286 285 285 286 286 284 285 284 283 284 283 285 285 285 284 284 285 285 286 284 283 283 284 285 287 290 290 291 296 307 316 316 321 321 325 327 325 330 333 332
285 284 284 286 285 285 285 285 285 284 284 283 283 283 284 284 284 283 283 283 283 283 284 283 283 284 285 285 286 286 288 289 295 302 313 318 318 321 321 327 325 329 331
285 285 286 285 285 285 285 285 285 284 284 283 282 283 282 283 282 282 283 283 281 281 281 282 284 283 282 283 284 284 284 284 286 287 293 288 292 300 317 322 324 324 322
285 285 285 284 284 284 284 284 284 284 284 283 283 283 282 281 281 281 282 283 282 281 280 281 281 282 282 282 281 282 282 283 282 284 284 283 284 285 287 293 319 322 321
284 284 284 283 283 283 283 283 284 284 283 282 282 282 282 281 279 280 281 284 283 281 279 280 280 279 280 281 279 280 281 281 282 282 282 282 282 283 285 291 290 297 302
282 282 283 282 282 282 282 282 283 283 282 282 282 281 280 280 278 278 280 283 282 282 280 279 278 278 279 280 279 280 280 281 283 283 283 283 283 283 283 284 283 286 291
280 281 282 283 282 281 282 282 283 282 281 282 281 281 279 279 278 278 277 278 279 279 280 279 277 277 278 278 279 278 278 280 281 281 282 283 282 282 282 281 280 280 282
278 280 281 282 281 281 282 282 282 282 281 281 281 281 280 279 279 277 276 275 275 276 276 276 276 275 276 277 277 277 276 282 282 282 283 283 282 283 282 281 282 280 279
277 276 277 277 279 280 280 281 281 281 281 280 280 280 281 280 278 277 277 275 274 273 274 275 275 275 275 275 275 276 277 279 281 281 282 281 281 280 283 282 283 283 284
276 275 277 277 277 279 279 279 280 280 279 279 278 279 279 279 279 276 276 275 274 274 274 274 274 274 274 274 274 274 275 277 278 279 279 280 280 282 283 283 285 285 285
277 277 277 277 278 278 280 279 278 278 278 278 278 277 278 277 276 276 276 276 274 274 274 275 274 274 273 274 275 275 275 276 276 276 277 279 281 281 281 282 281 283 283
279 279 280 279 278 278 277 277 278 276 275 276 276 277 275 274 274 274 273 273 273 272 274 275 274 273 273 273 273 274 274 273 273 275 276 276 277 278 279 281 280 281 280
279 280 279 280 280 279 279 278 273 273 273 273 273 274 276 273 273 272 272 272 272 272 274 272 271 272 271 271 272 272 273 272 272 273 274 274 274 275 277 280 281 280 279
279 278 280 278 279 278 278 277 277 275 272 271 271 271 272 271 272 271 271 271 271 272 272 271 271 271 271 271 271 271 271 272 272 272 273 273 274 275 276 276 277 278 277
277 272 279 279 278 278 278 277 277 276 275 276 273 271 270 270 270 270 271 272 273 272 271 270 269 270 270 270 270 270 271 271 272 272 272 272 272 274 275 274 275 276 276
279 280 279 279 279 277 278 278 278 277 276 276 276 274 272 271 270 270 271 272 270 270 270 270 270 269 270 270 270 270 270 270 270 270 271 271 271 272 273 274 275 274 275
278 276 276 279 279 278 278 277 277 276 276 276 275 274 272 273 273 272 272 271 271 270 270 270 270 269 269 269 269 270 270 270 269 270 270 270 271 272 272 273 274 274 275
281 280 275 278 279 278 278 277 276 276 275 275 275 272 268 272 272 272 272 271 270 270 270 270 270 269 269 269 268 269 268 269 268 268 269 269 269 270 272 272 273 274 274
280 280 279 278 278 278 277 276 276 275 275 274 274 274 270 274 273 272 272 271 271 271 271 270 269 269 269 268 268 268 268 267 267 267 267 267 268 270 271 271 272 272 273
279 279 278 278 278 275 277 276 276 275 275 274 274 273 273 273 272 272 272 271 271 271 271 270 269 268 269 268 268 268 267 267 266 266 266 266 268 269 269 270 270 271 271
279 278 278 277 277 276 276 276 275 273 273 273 274 274 273 273 272 272 272 272 271 271 270 270 269 268 267 267 268 268 268 266 266 266 264 265 267 268 269 269 269 270 271
278 278 277 277 277 276 275 275 275 274 274 273 273 273 273 273 272 272 272 271 270 270 270 270 270 269 268 267 266 266 265 263 263 263 265 266 267 267 268 268 268 269 270
277 277 277 277 276 275 275 274 274 273 273 273 273 272 272 272 272 271 271 271 270 270 270 270 270 269 268 269 268 265 263 263 263 262 263 267 266 266 267 266 267 268 269
Wind_Speed
8 10 11 11 12 12 11 12 13 13 14 16 17 19 19 19 18 16 16 16 15 15 15 15 16 17 9 11 12 12 13 13 15 14 12 13 16 16 15 15 16 15 13
8 9 11 12 12 12 12 13 13 13 13 15 16 17 18 20 18 18 16 16 16 17 16 16 17 14 14 12 7 13 14 14 12 18 13 11 16 16 16 16 13 14 15
8 9 11 13 12 12 12 12 12 13 13 14 15 16 17 19 19 18 17 16 16 16 16 15 16 18 16 12 12 10 9 11 12 14 16 12 12 9 14 13 12 15 12
8 9 10 10 11 11 11 10 11 12 13 13 13 15 15 18 18 18 17 17 17 17 17 16 16 16 17 16 11 12 10 10 12 12 11 14 13 15 12 13 12 10 12
7 8 9 10 8 9 9 9 8 10 11 13 13 15 14 15 14 17 17 17 17 18 20 17 15 22 24 21 11 13 14 10 7 10 11 13 12 11 13 13 14 12 13
8 8 9 11 10 8 8 8 8 9 10 12 13 12 15 13 29 26 19 13 15 18 17 18 19 23 21 22 22 22 19 16 12 8 6 8 13 14 12 15 13 12 10
8 9 10 11 10 10 9 10 11 11 11 12 11 12 14 18 31 28 22 12 14 15 17 18 17 15 22 15 19 21 21 26 17 13 13 12 9 14 13 16 13 15 13
9 9 8 10 10 10 10 11 11 11 12 12 14 15 15 16 30 30 20 10 11 15 17 19 19 20 24 20 14 13 15 14 15 11 12 10 12 15 12 10 11 11 3
8 8 8 10 10 10 11 11 11 11 11 12 12 15 17 17 30 30 21 13 13 14 14 16 19 20 30 31 17 15 13 15 13 18 17 21 22 23 26 11 11 11 5
7 8 7 8 9 10 10 11 10 10 11 9 11 14 17 17 27 29 24 12 15 13 15 17 28 24 30 30 18 17 17 16 14 14 12 17 19 18 25 15 12 8 6
5 7 7 8 8 9 9 10 10 10 11 11 12 12 15 17 19 27 28 15 13 12 12 14 14 28 28 30 27 18 18 14 13 11 11 11 12 14 11 11 10 8 7
4 5 6 6 7 7 9 9 11 10 11 11 11 11 11 14 21 23 25 22 20 11 13 11 13 25 25 27 22 29 25 16 11 12 13 13 13 13 13 12 11 10 6
4 4 4 5 5 6 8 9 8 9 9 9 9 9 10 11 12 22 22 22 20 11 10 15 21 22 23 18 27 27 19 13 13 13 14 13 12 11 11 12 10 11 3
4 3 3 4 5 5 5 6 7 8 8 8 8 9 9 10 12 13 12 12 16 13 14 12 14 14 16 14 14 15 13 14 14 13 13 14 12 13 11 11 10 11 9
3 2 2 3 4 4 6 6 5 8 8 7 7 7 9 9 11 15 14 12 12 12 12 10 11 12 13 13 12 13 12 13 14 13 12 13 14 14 13 12 11 11 11
3 2 3 3 3 3 3 4 8 8 10 11 12 9 5 11 15 17 15 16 20 16 10 11 12 13 14 14 14 14 13 15 13 12 12 13 13 13 13 13 12 12 13
2 1 2 2 2 3 3 3 3 5 5 7 10 11 11 11 14 16 15 12 15 13 9 9 10 11 12 12 13 13 14 13 14 13 13 13 12 11 14 12 12 12 13
2 1 1 1 1 1 1 1 2 3 3 3 4 5 10 10 11 14 15 10 7 10 8 9 10 10 10 11 11 12 12 12 12 13 13 13 13 13 13 13 13 14 14
4 3 3 2 2 2 2 2 2 3 3 3 3 2 6 7 5 8 11 7 8 8 9 9 9 9 9 10 10 10 12 11 12 12 12 12 12 12 13 13 13 17 17
5 3 4 3 3 3 3 3 3 3 4 4 4 5 7 6 5 6 6 7 7 7 7 8 8 8 9 9 10 10 11 12 12 12 12 12 12 12 13 14 13 14 14
4 4 3 5 3 3 3 3 3 4 4 4 4 5 6 7 6 6 6 7 7 7 7 8 7 7 8 8 9 9 10 10 11 11 11 12 13 12 12 13 14 13 14
4 4 4 3 3 3 3 4 4 4 4 5 5 4 4 5 5 6 6 6 6 6 6 7 7 7 7 8 9 9 10 10 11 12 12 12 12 12 12 13 13 13 13
5 5 5 4 3 3 4 4 4 5 5 5 6 5 6 6 6 6 7 6 7 7 6 6 6 6 7 7 8 8 9 10 11 11 12 12 12 12 13 13 13 13 13
5 6 6 4 4 4 5 5 5 5 5 5 6 6 6 6 6 7 6 7 7 7 7 6 7 8 8 8 8 7 8 9 10 10 14 12 12 14 13 13 13 16 14
5 6 5 5 5 5 5 5 5 6 5 5 6 6 6 6 7 7 7 7 7 7 8 8 7 10 10 13 11 10 11 11 11 12 11 13 13 16 14 13 14 14 16
6 6 6 5 5 5 5 5 5 5 5 5 5 6 6 6 6 7 7 7 7 8 10 8 10 12 13 12 11 11 12 12 11 13 11 10 11 11 12 14 17 13 15
Wind_Direction
8 358 10 5 4 3 1 359 352 350 356 354 353 351 355 353 349 345 344 348 342 344 351 350 346 336 319 330 280 246 237 227 234 243 249 234 241 223 224 212 223 219 207
8 5 15 9 8 6 2 1 352 353 3 2 359 356 353 355 353 352 351 353 356 356 356 1 360 345 337 337 336 339 271 240 240 240 240 236 242 233 228 222 221 222 216
16 16 11 14 10 6 359 0 353 357 5 7 6 2 356 1 357 355 356 1 6 2 0 2 4 356 348 343 343 350 325 327 261 255 252 246 235 222 235 226 217 225 219
19 21 11 20 7 4 356 354 358 4 8 8 7 3 360 6 4 2 0 6 8 12 8 3 3 3 358 352 359 6 355 330 317 270 261 251 228 227 232 229 217 218 214
31 28 10 16 19 7 355 354 7 10 16 15 10 9 4 10 9 4 6 6 11 9 11 6 4 5 10 13 12 14 4 11 346 319 318 269 258 239 224 224 227 211 217
31 24 16 13 10 9 6 5 14 21 23 20 12 10 12 9 10 11 9 6 12 17 10 6 5 7 3 7 21 32 28 23 23 16 354 16 355 354 294 218 216 214 209
31 29 16 12 11 10 12 15 19 23 21 28 22 13 24 14 12 11 8 9 16 21 15 11 6 7 6 3 12 20 30 32 32 29 28 19 2 339 335 329 233 219 222
38 28 19 17 16 15 21 24 23 27 23 25 24 22 21 24 14 10 4 12 14 26 21 16 13 8 12 6 8 17 20 23 27 25 36 19 18 360 7 314 350 317 30
36 30 27 24 18 22 26 27 27 29 28 28 25 25 19 26 15 15 4 12 18 28 25 21 19 14 13 12 15 12 21 27 19 23 29 31 31 19 27 9 351 15 336
24 28 26 32 24 29 27 30 31 34 33 27 33 29 29 17 23 19 15 11 18 17 21 21 20 19 16 20 22 10 16 13 7 8 11 27 18 14 24 26 15 355 358
24 32 28 25 31 31 31 33 28 36 33 28 23 27 24 29 21 18 20 22 10 16 16 12 14 14 17 18 23 22 11 2 6 13 14 24 22 21 17 11 18 4 6
58 49 38 26 24 26 32 27 31 26 34 28 19 19 19 15 22 16 17 21 15 18 16 9 3 10 16 19 20 16 16 18 9 13 18 20 14 15 12 1 10 8 11
79 58 44 43 33 31 38 30 31 27 24 22 20 13 13 12 10 11 11 14 17 13 8 9 7 12 14 13 18 17 16 13 12 15 20 15 9 4 2 2 359 2 5
119 107 84 45 49 36 42 41 36 26 19 21 15 15 8 11 9 4 4 3 7 13 358 5 7 13 19 16 16 15 15 13 11 13 9 6 5 7 5 2 359 356 356
121 98 75 89 45 70 57 29 44 48 29 17 13 13 7 13 10 4 6 6 3 353 353 8 14 12 11 13 11 13 16 13 11 10 8 6 4 0 1 1 359 355 360
143 98 36 33 44 52 57 113 76 63 51 49 33 21 25 20 8 5 5 9 12 8 16 15 13 9 9 5 5 5 9 8 6 2 5 3 2 359 353 359 356 1 357
95 60 83 338 21 19 22 15 21 141 114 58 33 28 21 15 10 9 3 359 19 10 25 21 18 11 6 3 2 1 359 3 358 0 1 358 357 353 351 356 353 355 353
153 90 283 333 330 333 340 352 330 340 342 356 98 12 10 3 5 8 2 356 12 23 19 16 11 6 3 0 0 358 355 357 359 355 356 356 354 350 352 353 349 348 343
209 200 233 244 273 303 292 294 310 317 330 336 345 14 9 343 348 4 6 14 7 12 7 9 5 1 360 357 355 354 353 355 354 351 353 352 351 346 346 345 341 343 335
203 195 258 257 254 272 282 299 314 322 327 339 355 14 355 326 3 8 14 12 4 5 0 358 358 357 354 353 350 351 350 352 354 352 349 348 345 339 339 338 337 336 337
216 199 228 243 254 283 294 308 323 329 336 339 357 60 360 317 357 358 1 10 1 357 356 353 349 354 349 349 348 347 347 347 349 345 343 342 337 334 337 333 330 332 330
227 231 237 258 273 276 321 308 320 323 329 334 341 359 336 328 351 350 356 2 351 350 353 348 343 353 350 344 341 340 339 347 343 342 338 334 331 331 336 329 330 329 328
231 234 243 249 268 278 260 303 308 314 325 326 328 330 338 346 342 346 347 343 346 340 350 341 337 344 348 337 332 337 334 347 340 335 331 327 328 332 331 327 330 324 331
232 237 248 255 266 297 293 299 304 300 299 306 318 322 326 331 334 337 333 343 336 333 330 339 330 337 336 333 328 330 333 343 331 329 331 320 320 331 325 330 324 327 319
232 240 246 256 268 276 283 277 293 301 301 305 308 312 315 317 318 325 329 330 332 321 323 319 321 327 332 329 320 324 338 324 325 326 327 314 323 322 327 325 326 324 319
227 232 244 251 254 255 266 276 284 289 288 294 299 299 298 299 301 306 309 308 309 316 315 310 315 318 321 316 321 332 322 319 324 327 322 315 327 325 328 325 325 323 325